Year,Month,Day,Hour,Minute,Value (Times are PST for temperature in C)
2013,06,22,00,00,12.80
2013,06,22,00,01,12.80
2013,06,22,00,02,12.80
2013,06,22,00,03,12.80
2013,06,22,00,04,12.80
2013,06,22,00,05,12.70
2013,06,22,00,06,12.70
2013,06,22,00,07,12.70
2013,06,22,00,08,12.60
2013,06,22,00,09,12.60
2013,06,22,00,10,12.60
2013,06,22,00,11,12.60
2013,06,22,00,12,12.60
2013,06,22,00,13,12.50
2013,06,22,00,14,12.50
2013,06,22,00,15,12.60
2013,06,22,00,16,12.60
2013,06,22,00,17,12.60
2013,06,22,00,18,12.60
2013,06,22,00,19,12.60
2013,06,22,00,20,12.60
2013,06,22,00,21,12.60
2013,06,22,00,22,12.60
2013,06,22,00,23,12.60
2013,06,22,00,24,12.60
2013,06,22,00,25,12.60
2013,06,22,00,26,12.60
2013,06,22,00,27,12.60
2013,06,22,00,28,12.60
2013,06,22,00,29,12.50
2013,06,22,00,30,12.50
2013,06,22,00,31,12.50
2013,06,22,00,32,12.50
2013,06,22,00,33,12.50
2013,06,22,00,34,12.50
2013,06,22,00,35,12.40
2013,06,22,00,36,12.40
2013,06,22,00,37,12.40
2013,06,22,00,38,12.40
2013,06,22,00,39,12.30
2013,06,22,00,40,12.30
2013,06,22,00,41,12.30
2013,06,22,00,42,12.30
2013,06,22,00,43,12.30
2013,06,22,00,44,12.30
2013,06,22,00,45,12.30
2013,06,22,00,46,12.30
2013,06,22,00,47,12.30
2013,06,22,00,48,12.30
2013,06,22,00,49,12.30
2013,06,22,00,50,12.30
2013,06,22,00,51,12.30
2013,06,22,00,52,12.30
2013,06,22,00,53,12.30
2013,06,22,00,54,12.30
2013,06,22,00,55,12.20
2013,06,22,00,56,12.20
2013,06,22,00,57,12.20
2013,06,22,00,58,12.20
2013,06,22,00,59,12.20
2013,06,22,01,00,12.10
2013,06,22,01,01,12.10
2013,06,22,01,02,12.10
2013,06,22,01,03,12.10
2013,06,22,01,04,12.10
2013,06,22,01,05,12.00
2013,06,22,01,06,12.00
2013,06,22,01,07,12.00
2013,06,22,01,08,12.00
2013,06,22,01,09,12.00
2013,06,22,01,10,12.00
2013,06,22,01,11,12.00
2013,06,22,01,12,12.00
2013,06,22,01,13,11.90
2013,06,22,01,14,11.90
2013,06,22,01,15,11.90
2013,06,22,01,16,12.00
2013,06,22,01,17,12.00
2013,06,22,01,18,12.00
2013,06,22,01,19,12.00
2013,06,22,01,20,12.00
2013,06,22,01,21,12.00
2013,06,22,01,22,12.00
2013,06,22,01,23,12.00
2013,06,22,01,24,12.00
2013,06,22,01,25,12.00
2013,06,22,01,26,11.90
2013,06,22,01,27,11.90
2013,06,22,01,28,12.00
2013,06,22,01,29,12.00
2013,06,22,01,30,12.00
2013,06,22,01,31,12.00
2013,06,22,01,32,12.00
2013,06,22,01,33,12.00
2013,06,22,01,34,12.00
2013,06,22,01,35,12.00
2013,06,22,01,36,12.00
2013,06,22,01,37,12.00
2013,06,22,01,38,12.00
2013,06,22,01,39,12.00
2013,06,22,01,40,12.00
2013,06,22,01,41,12.00
2013,06,22,01,42,11.90
2013,06,22,01,43,11.90
2013,06,22,01,44,11.90
2013,06,22,01,45,11.90
2013,06,22,01,46,11.90
2013,06,22,01,47,11.90
2013,06,22,01,48,11.80
2013,06,22,01,49,11.80
2013,06,22,01,50,11.80
2013,06,22,01,51,11.80
2013,06,22,01,52,11.80
2013,06,22,01,53,11.80
2013,06,22,01,54,11.90
2013,06,22,01,55,11.90
2013,06,22,01,56,11.90
2013,06,22,01,57,11.90
2013,06,22,01,58,11.90
2013,06,22,01,59,11.80
2013,06,22,02,00,11.80
2013,06,22,02,01,11.80
2013,06,22,02,02,11.80
2013,06,22,02,03,11.80
2013,06,22,02,04,11.80
2013,06,22,02,05,11.80
2013,06,22,02,06,11.70
2013,06,22,02,07,11.70
2013,06,22,02,08,11.70
2013,06,22,02,09,11.70
2013,06,22,02,10,11.60
2013,06,22,02,11,11.60
2013,06,22,02,12,11.60
2013,06,22,02,13,11.60
2013,06,22,02,14,11.50
2013,06,22,02,15,11.40
2013,06,22,02,16,11.40
2013,06,22,02,17,11.40
2013,06,22,02,18,11.40
2013,06,22,02,19,11.40
2013,06,22,02,20,11.40
2013,06,22,02,21,11.30
2013,06,22,02,22,11.30
2013,06,22,02,23,11.20
2013,06,22,02,24,11.20
2013,06,22,02,25,11.20
2013,06,22,02,26,11.20
2013,06,22,02,27,11.20
2013,06,22,02,28,11.10
2013,06,22,02,29,11.10
2013,06,22,02,30,11.10
2013,06,22,02,31,11.10
2013,06,22,02,32,11.10
2013,06,22,02,33,11.10
2013,06,22,02,34,11.10
2013,06,22,02,35,11.10
2013,06,22,02,36,11.10
2013,06,22,02,37,11.10
2013,06,22,02,38,11.10
2013,06,22,02,39,11.10
2013,06,22,02,40,11.10
2013,06,22,02,41,11.00
2013,06,22,02,42,10.90
2013,06,22,02,43,10.90
2013,06,22,02,44,10.90
2013,06,22,02,45,10.90
2013,06,22,02,46,10.90
2013,06,22,02,47,10.90
2013,06,22,02,48,10.90
2013,06,22,02,49,10.90
2013,06,22,02,50,10.90
2013,06,22,02,51,10.90
2013,06,22,02,52,10.90
2013,06,22,02,53,10.90
2013,06,22,02,54,10.90
2013,06,22,02,55,10.80
2013,06,22,02,56,10.80
2013,06,22,02,57,10.80
2013,06,22,02,58,10.80
2013,06,22,02,59,10.70
2013,06,22,03,00,10.70
2013,06,22,03,01,10.70
2013,06,22,03,02,10.70
2013,06,22,03,03,10.70
2013,06,22,03,04,10.70
2013,06,22,03,05,10.70
2013,06,22,03,06,10.70
2013,06,22,03,07,10.70
2013,06,22,03,08,10.70
2013,06,22,03,09,10.70
2013,06,22,03,10,10.60
2013,06,22,03,11,10.60
2013,06,22,03,12,10.60
2013,06,22,03,13,10.60
2013,06,22,03,14,10.60
2013,06,22,03,15,10.60
2013,06,22,03,16,10.60
2013,06,22,03,17,10.60
2013,06,22,03,18,10.70
2013,06,22,03,19,10.70
2013,06,22,03,20,10.70
2013,06,22,03,21,10.80
2013,06,22,03,22,10.90
2013,06,22,03,23,10.90
2013,06,22,03,24,10.90
2013,06,22,03,25,10.90
2013,06,22,03,26,10.90
2013,06,22,03,27,10.90
2013,06,22,03,28,10.90
2013,06,22,03,29,10.90
2013,06,22,03,30,10.90
2013,06,22,03,31,10.90
2013,06,22,03,32,10.90
2013,06,22,03,33,10.90
2013,06,22,03,34,10.90
2013,06,22,03,35,10.90
2013,06,22,03,36,10.90
2013,06,22,03,37,10.90
2013,06,22,03,38,10.90
2013,06,22,03,39,10.90
2013,06,22,03,40,10.90
2013,06,22,03,41,10.90
2013,06,22,03,42,10.90
2013,06,22,03,43,10.90
2013,06,22,03,44,10.90
2013,06,22,03,45,10.90
2013,06,22,03,46,10.90
2013,06,22,03,47,10.90
2013,06,22,03,48,10.90
2013,06,22,03,49,10.90
2013,06,22,03,50,10.90
2013,06,22,03,51,10.80
2013,06,22,03,52,10.80
2013,06,22,03,53,10.80
2013,06,22,03,54,10.80
2013,06,22,03,55,10.70
2013,06,22,03,56,10.70
2013,06,22,03,57,10.70
2013,06,22,03,58,10.70
2013,06,22,03,59,10.70
2013,06,22,04,00,10.70
2013,06,22,04,01,10.70
2013,06,22,04,02,10.70
2013,06,22,04,03,10.70
2013,06,22,04,04,10.70
2013,06,22,04,05,10.70
2013,06,22,04,06,10.70
2013,06,22,04,07,10.70
2013,06,22,04,08,10.70
2013,06,22,04,09,10.70
2013,06,22,04,10,10.70
2013,06,22,04,11,10.80
2013,06,22,04,12,10.80
2013,06,22,04,13,10.80
2013,06,22,04,14,10.80
2013,06,22,04,15,10.80
2013,06,22,04,16,10.90
2013,06,22,04,17,10.90
2013,06,22,04,18,10.90
2013,06,22,04,19,10.90
2013,06,22,04,20,10.90
2013,06,22,04,21,10.90
2013,06,22,04,22,10.80
2013,06,22,04,23,10.80
2013,06,22,04,24,10.90
2013,06,22,04,25,10.90
2013,06,22,04,26,11.00
2013,06,22,04,27,11.10
2013,06,22,04,28,11.10
2013,06,22,04,29,11.10
2013,06,22,04,30,11.10
2013,06,22,04,31,11.10
2013,06,22,04,32,11.00
2013,06,22,04,33,10.90
2013,06,22,04,34,10.90
2013,06,22,04,35,10.90
2013,06,22,04,36,10.90
2013,06,22,04,37,10.90
2013,06,22,04,38,10.90
2013,06,22,04,39,10.90
2013,06,22,04,40,10.90
2013,06,22,04,41,10.90
2013,06,22,04,42,10.90
2013,06,22,04,43,10.90
2013,06,22,04,44,10.90
2013,06,22,04,45,10.90
2013,06,22,04,46,10.90
2013,06,22,04,47,10.90
2013,06,22,04,48,10.90
2013,06,22,04,49,10.80
2013,06,22,04,50,10.80
2013,06,22,04,51,10.70
2013,06,22,04,52,10.70
2013,06,22,04,53,10.70
2013,06,22,04,54,10.70
2013,06,22,04,55,10.60
2013,06,22,04,56,10.60
2013,06,22,04,57,10.60
2013,06,22,04,58,10.60
2013,06,22,04,59,10.60
2013,06,22,05,00,10.60
2013,06,22,05,01,10.60
2013,06,22,05,02,10.60
2013,06,22,05,03,10.60
2013,06,22,05,04,10.60
2013,06,22,05,05,10.60
2013,06,22,05,06,10.60
2013,06,22,05,07,10.60
2013,06,22,05,08,10.60
2013,06,22,05,09,10.60
2013,06,22,05,10,10.60
2013,06,22,05,11,10.60
2013,06,22,05,12,10.60
2013,06,22,05,13,10.60
2013,06,22,05,14,10.60
2013,06,22,05,15,10.60
2013,06,22,05,16,10.60
2013,06,22,05,17,10.60
2013,06,22,05,18,10.60
2013,06,22,05,19,10.60
2013,06,22,05,20,10.60
2013,06,22,05,21,10.70
2013,06,22,05,22,10.70
2013,06,22,05,23,10.70
2013,06,22,05,24,10.70
2013,06,22,05,25,10.70
2013,06,22,05,26,10.70
2013,06,22,05,27,10.70
2013,06,22,05,28,10.80
2013,06,22,05,29,10.80
2013,06,22,05,30,10.90
2013,06,22,05,31,10.90
2013,06,22,05,32,10.90
2013,06,22,05,33,10.90
2013,06,22,05,34,10.90
2013,06,22,05,35,10.90
2013,06,22,05,36,10.90
2013,06,22,05,37,10.90
2013,06,22,05,38,10.90
2013,06,22,05,39,10.90
2013,06,22,05,40,10.90
2013,06,22,05,41,10.90
2013,06,22,05,42,10.90
2013,06,22,05,43,10.90
2013,06,22,05,44,11.00
2013,06,22,05,45,11.10
2013,06,22,05,46,11.10
2013,06,22,05,47,11.10
2013,06,22,05,48,11.10
2013,06,22,05,49,11.00
2013,06,22,05,50,10.90
2013,06,22,05,51,10.90
2013,06,22,05,52,10.90
2013,06,22,05,53,10.90
2013,06,22,05,54,10.90
2013,06,22,05,55,10.90
2013,06,22,05,56,10.90
2013,06,22,05,57,10.80
2013,06,22,05,58,10.80
2013,06,22,05,59,10.80
2013,06,22,06,00,10.80
2013,06,22,06,01,10.80
2013,06,22,06,02,10.80
2013,06,22,06,03,10.80
2013,06,22,06,04,10.80
2013,06,22,06,05,10.90
2013,06,22,06,06,10.90
2013,06,22,06,07,11.00
2013,06,22,06,08,11.10
2013,06,22,06,09,11.10
2013,06,22,06,10,11.20
2013,06,22,06,11,11.30
2013,06,22,06,12,11.30
2013,06,22,06,13,11.40
2013,06,22,06,14,11.40
2013,06,22,06,15,11.40
2013,06,22,06,16,11.40
2013,06,22,06,17,11.40
2013,06,22,06,18,11.40
2013,06,22,06,19,11.50
2013,06,22,06,20,11.60
2013,06,22,06,21,11.60
2013,06,22,06,22,11.60
2013,06,22,06,23,11.70
2013,06,22,06,24,11.70
2013,06,22,06,25,11.70
2013,06,22,06,26,11.70
2013,06,22,06,27,11.70
2013,06,22,06,28,11.70
2013,06,22,06,29,11.70
2013,06,22,06,30,11.80
2013,06,22,06,31,11.80
2013,06,22,06,32,11.80
2013,06,22,06,33,11.90
2013,06,22,06,34,11.90
2013,06,22,06,35,12.00
2013,06,22,06,36,12.10
2013,06,22,06,37,12.10
2013,06,22,06,38,12.10
2013,06,22,06,39,12.10
2013,06,22,06,40,12.10
2013,06,22,06,41,12.10
2013,06,22,06,42,12.10
2013,06,22,06,43,12.20
2013,06,22,06,44,12.20
2013,06,22,06,45,12.30
2013,06,22,06,46,12.30
2013,06,22,06,47,12.30
2013,06,22,06,48,12.30
2013,06,22,06,49,12.30
2013,06,22,06,50,12.30
2013,06,22,06,51,12.40
2013,06,22,06,52,12.40
2013,06,22,06,53,12.50
2013,06,22,06,54,12.50
2013,06,22,06,55,12.60
2013,06,22,06,56,12.60
2013,06,22,06,57,12.60
2013,06,22,06,58,12.70
2013,06,22,06,59,12.70
2013,06,22,07,00,12.70
2013,06,22,07,01,12.70
2013,06,22,07,02,12.70
2013,06,22,07,03,12.70
2013,06,22,07,04,12.80
2013,06,22,07,05,12.80
2013,06,22,07,06,12.80
2013,06,22,07,07,12.80
2013,06,22,07,08,12.80
2013,06,22,07,09,12.90
2013,06,22,07,10,12.90
2013,06,22,07,11,13.00
2013,06,22,07,12,13.00
2013,06,22,07,13,13.00
2013,06,22,07,14,13.10
2013,06,22,07,15,13.10
2013,06,22,07,16,13.20
2013,06,22,07,17,13.30
2013,06,22,07,18,13.30
2013,06,22,07,19,13.40
2013,06,22,07,20,13.50
2013,06,22,07,21,13.50
2013,06,22,07,22,13.60
2013,06,22,07,23,13.70
2013,06,22,07,24,13.70
2013,06,22,07,25,13.80
2013,06,22,07,26,13.80
2013,06,22,07,27,13.90
2013,06,22,07,28,13.80
2013,06,22,07,29,13.90
2013,06,22,07,30,13.90
2013,06,22,07,31,14.00
2013,06,22,07,32,14.10
2013,06,22,07,33,14.10
2013,06,22,07,34,14.10
2013,06,22,07,35,14.00
2013,06,22,07,36,13.90
2013,06,22,07,37,13.80
2013,06,22,07,38,13.80
2013,06,22,07,39,13.70
2013,06,22,07,40,13.70
2013,06,22,07,41,13.70
2013,06,22,07,42,13.70
2013,06,22,07,43,13.70
2013,06,22,07,44,13.60
2013,06,22,07,45,13.60
2013,06,22,07,46,13.50
2013,06,22,07,47,13.50
2013,06,22,07,48,13.40
2013,06,22,07,49,13.40
2013,06,22,07,50,13.30
2013,06,22,07,51,13.30
2013,06,22,07,52,13.30
2013,06,22,07,53,13.30
2013,06,22,07,54,13.10
2013,06,22,07,55,13.10
2013,06,22,07,56,13.00
2013,06,22,07,57,12.90
2013,06,22,07,58,12.80
2013,06,22,07,59,12.80
2013,06,22,08,00,12.80
2013,06,22,08,01,12.70
2013,06,22,08,02,12.70
2013,06,22,08,03,12.60
2013,06,22,08,04,12.60
2013,06,22,08,05,12.50
2013,06,22,08,06,12.50
2013,06,22,08,07,12.60
2013,06,22,08,08,12.60
2013,06,22,08,09,12.70
2013,06,22,08,10,12.80
2013,06,22,08,11,12.90
2013,06,22,08,12,12.90
2013,06,22,08,13,13.00
2013,06,22,08,14,13.10
2013,06,22,08,15,13.20
2013,06,22,08,16,13.20
2013,06,22,08,17,13.30
2013,06,22,08,18,13.40
2013,06,22,08,19,13.50
2013,06,22,08,20,13.50
2013,06,22,08,21,13.60
2013,06,22,08,22,13.70
2013,06,22,08,23,13.70
2013,06,22,08,24,13.80
2013,06,22,08,25,13.90
2013,06,22,08,26,13.90
2013,06,22,08,27,13.90
2013,06,22,08,28,13.90
2013,06,22,08,29,13.90
2013,06,22,08,30,14.00
2013,06,22,08,31,14.00
2013,06,22,08,32,14.00
2013,06,22,08,33,13.90
2013,06,22,08,34,13.80
2013,06,22,08,35,13.80
2013,06,22,08,36,13.70
2013,06,22,08,37,13.70
2013,06,22,08,38,13.70
2013,06,22,08,39,13.70
2013,06,22,08,40,13.70
2013,06,22,08,41,13.70
2013,06,22,08,42,13.70
2013,06,22,08,43,13.70
2013,06,22,08,44,13.80
2013,06,22,08,45,13.80
2013,06,22,08,46,13.80
2013,06,22,08,47,13.80
2013,06,22,08,48,13.80
2013,06,22,08,49,13.80
2013,06,22,08,50,13.80
2013,06,22,08,51,13.90
2013,06,22,08,52,14.00
2013,06,22,08,53,14.00
2013,06,22,08,54,14.10
2013,06,22,08,55,14.10
2013,06,22,08,56,14.20
2013,06,22,08,57,14.30
2013,06,22,08,58,14.40
2013,06,22,08,59,14.50
2013,06,22,09,00,14.60
2013,06,22,09,01,14.60
2013,06,22,09,02,14.60
2013,06,22,09,03,14.60
2013,06,22,09,04,14.60
2013,06,22,09,05,14.60
2013,06,22,09,06,14.60
2013,06,22,09,07,14.50
2013,06,22,09,08,14.50
2013,06,22,09,09,14.60
2013,06,22,09,10,14.60
2013,06,22,09,11,14.70
2013,06,22,09,12,14.70
2013,06,22,09,13,14.80
2013,06,22,09,14,14.80
2013,06,22,09,15,14.70
2013,06,22,09,16,14.80
2013,06,22,09,17,14.80
2013,06,22,09,18,14.80
2013,06,22,09,19,14.80
2013,06,22,09,20,14.80
2013,06,22,09,21,14.80
2013,06,22,09,22,14.90
2013,06,22,09,23,14.90
2013,06,22,09,24,15.00
2013,06,22,09,25,15.00
2013,06,22,09,26,15.10
2013,06,22,09,27,15.10
2013,06,22,09,28,15.10
2013,06,22,09,29,15.10
2013,06,22,09,30,15.20
2013,06,22,09,31,15.10
2013,06,22,09,32,15.10
2013,06,22,09,33,15.00
2013,06,22,09,34,15.00
2013,06,22,09,35,15.00
2013,06,22,09,36,14.90
2013,06,22,09,37,14.90
2013,06,22,09,38,14.90
2013,06,22,09,39,14.80
2013,06,22,09,40,14.80
2013,06,22,09,41,14.80
2013,06,22,09,42,14.90
2013,06,22,09,43,14.90
2013,06,22,09,44,15.00
2013,06,22,09,45,15.00
2013,06,22,09,46,15.00
2013,06,22,09,47,15.00
2013,06,22,09,48,15.00
2013,06,22,09,49,15.00
2013,06,22,09,50,15.00
2013,06,22,09,51,14.90
2013,06,22,09,52,14.90
2013,06,22,09,53,14.90
2013,06,22,09,54,15.00
2013,06,22,09,55,15.10
2013,06,22,09,56,15.30
2013,06,22,09,57,15.30
2013,06,22,09,58,15.30
2013,06,22,09,59,15.20
2013,06,22,10,00,15.00
2013,06,22,10,01,15.00
2013,06,22,10,02,15.00
2013,06,22,10,03,15.10
2013,06,22,10,04,15.20
2013,06,22,10,05,15.30
2013,06,22,10,06,15.40
2013,06,22,10,07,15.40
2013,06,22,10,08,15.30
2013,06,22,10,09,15.20
2013,06,22,10,10,15.00
2013,06,22,10,11,14.80
2013,06,22,10,12,14.80
2013,06,22,10,13,14.80
2013,06,22,10,14,14.80
2013,06,22,10,15,14.80
2013,06,22,10,16,14.80
2013,06,22,10,17,14.80
2013,06,22,10,18,14.80
2013,06,22,10,19,14.80
2013,06,22,10,20,14.80
2013,06,22,10,21,14.80
2013,06,22,10,22,14.80
2013,06,22,10,23,14.80
2013,06,22,10,24,14.70
2013,06,22,10,25,14.60
2013,06,22,10,26,14.50
2013,06,22,10,27,14.40
2013,06,22,10,28,14.20
2013,06,22,10,29,14.10
2013,06,22,10,30,14.10
2013,06,22,10,31,14.10
2013,06,22,10,32,14.10
2013,06,22,10,33,14.10
2013,06,22,10,34,14.10
2013,06,22,10,35,14.20
2013,06,22,10,36,14.20
2013,06,22,10,37,14.20
2013,06,22,10,38,14.20
2013,06,22,10,39,14.30
2013,06,22,10,40,14.40
2013,06,22,10,41,14.50
2013,06,22,10,42,14.60
2013,06,22,10,43,14.60
2013,06,22,10,44,14.70
2013,06,22,10,45,14.90
2013,06,22,10,46,15.00
2013,06,22,10,47,15.10
2013,06,22,10,48,15.20
2013,06,22,10,49,15.30
2013,06,22,10,50,15.30
2013,06,22,10,51,15.40
2013,06,22,10,52,15.50
2013,06,22,10,53,15.50
2013,06,22,10,54,15.50
2013,06,22,10,55,15.50
2013,06,22,10,56,15.60
2013,06,22,10,57,15.70
2013,06,22,10,58,15.80
2013,06,22,10,59,15.90
2013,06,22,11,00,16.00
2013,06,22,11,01,16.10
2013,06,22,11,02,16.20
2013,06,22,11,03,16.20
2013,06,22,11,04,16.30
2013,06,22,11,05,16.30
2013,06,22,11,06,16.30
2013,06,22,11,07,16.30
2013,06,22,11,08,16.40
2013,06,22,11,09,16.40
2013,06,22,11,10,16.40
2013,06,22,11,11,16.40
2013,06,22,11,12,16.50
2013,06,22,11,13,16.60
2013,06,22,11,14,16.70
2013,06,22,11,15,16.60
2013,06,22,11,16,16.60
2013,06,22,11,17,16.60
2013,06,22,11,18,16.60
2013,06,22,11,19,16.60
2013,06,22,11,20,16.60
2013,06,22,11,21,16.60
2013,06,22,11,22,16.60
2013,06,22,11,23,16.70
2013,06,22,11,24,16.90
2013,06,22,11,25,16.90
2013,06,22,11,26,16.90
2013,06,22,11,27,16.90
2013,06,22,11,28,16.90
2013,06,22,11,29,16.90
2013,06,22,11,30,16.90
2013,06,22,11,31,16.80
2013,06,22,11,32,16.70
2013,06,22,11,33,16.60
2013,06,22,11,34,16.60
2013,06,22,11,35,16.60
2013,06,22,11,36,16.70
2013,06,22,11,37,16.70
2013,06,22,11,38,16.70
2013,06,22,11,39,16.70
2013,06,22,11,40,16.70
2013,06,22,11,41,16.70
2013,06,22,11,42,16.70
2013,06,22,11,43,16.70
2013,06,22,11,44,16.80
2013,06,22,11,45,16.90
2013,06,22,11,46,17.00
2013,06,22,11,47,17.00
2013,06,22,11,48,17.00
2013,06,22,11,49,16.90
2013,06,22,11,50,16.80
2013,06,22,11,51,16.60
2013,06,22,11,52,16.40
2013,06,22,11,53,16.40
2013,06,22,11,54,16.40
2013,06,22,11,55,16.60
2013,06,22,11,56,16.70
2013,06,22,11,57,16.70
2013,06,22,11,58,16.60
2013,06,22,11,59,16.60
2013,06,22,12,00,16.60
2013,06,22,12,01,16.70
2013,06,22,12,02,16.70
2013,06,22,12,03,16.70
2013,06,22,12,04,16.70
2013,06,22,12,05,16.60
2013,06,22,12,06,16.50
2013,06,22,12,07,16.40
2013,06,22,12,08,16.40
2013,06,22,12,09,16.50
2013,06,22,12,10,16.70
2013,06,22,12,11,16.80
2013,06,22,12,12,16.80
2013,06,22,12,13,16.80
2013,06,22,12,14,16.90
2013,06,22,12,15,17.10
2013,06,22,12,16,17.20
2013,06,22,12,17,17.10
2013,06,22,12,18,17.10
2013,06,22,12,19,17.00
2013,06,22,12,20,17.00
2013,06,22,12,21,17.00
2013,06,22,12,22,16.90
2013,06,22,12,23,16.80
2013,06,22,12,24,16.80
2013,06,22,12,25,16.90
2013,06,22,12,26,16.90
2013,06,22,12,27,17.00
2013,06,22,12,28,17.00
2013,06,22,12,29,17.10
2013,06,22,12,30,17.30
2013,06,22,12,31,17.30
2013,06,22,12,32,17.30
2013,06,22,12,33,17.30
2013,06,22,12,34,17.50
2013,06,22,12,35,17.70
2013,06,22,12,36,17.80
2013,06,22,12,37,18.00
2013,06,22,12,38,18.10
2013,06,22,12,39,18.20
2013,06,22,12,40,18.20
2013,06,22,12,41,18.20
2013,06,22,12,42,18.20
2013,06,22,12,43,18.20
2013,06,22,12,44,18.10
2013,06,22,12,45,18.00
2013,06,22,12,46,17.90
2013,06,22,12,47,17.80
2013,06,22,12,48,17.80
2013,06,22,12,49,17.80
2013,06,22,12,50,17.80
2013,06,22,12,51,17.80
2013,06,22,12,52,17.80
2013,06,22,12,53,17.90
2013,06,22,12,54,17.90
2013,06,22,12,55,17.80
2013,06,22,12,56,17.60
2013,06,22,12,57,17.40
2013,06,22,12,58,17.50
2013,06,22,12,59,17.50
2013,06,22,13,00,17.50
2013,06,22,13,01,17.40
2013,06,22,13,02,17.30
2013,06,22,13,03,17.30
2013,06,22,13,04,17.30
2013,06,22,13,05,17.40
2013,06,22,13,06,17.30
2013,06,22,13,07,17.30
2013,06,22,13,08,17.50
2013,06,22,13,09,17.70
2013,06,22,13,10,17.70
2013,06,22,13,11,17.70
2013,06,22,13,12,17.70
2013,06,22,13,13,17.60
2013,06,22,13,14,17.70
2013,06,22,13,15,17.70
2013,06,22,13,16,17.90
2013,06,22,13,17,18.00
2013,06,22,13,18,18.10
2013,06,22,13,19,18.10
2013,06,22,13,20,18.20
2013,06,22,13,21,18.20
2013,06,22,13,22,18.20
2013,06,22,13,23,18.20
2013,06,22,13,24,18.30
2013,06,22,13,25,18.30
2013,06,22,13,26,18.10
2013,06,22,13,27,18.00
2013,06,22,13,28,17.90
2013,06,22,13,29,18.00
2013,06,22,13,30,18.10
2013,06,22,13,31,18.30
2013,06,22,13,32,18.40
2013,06,22,13,33,18.40
2013,06,22,13,34,18.30
2013,06,22,13,35,18.40
2013,06,22,13,36,18.50
2013,06,22,13,37,18.70
2013,06,22,13,38,18.70
2013,06,22,13,39,18.70
2013,06,22,13,40,18.70
2013,06,22,13,41,18.80
2013,06,22,13,42,18.80
2013,06,22,13,43,18.80
2013,06,22,13,44,18.90
2013,06,22,13,45,19.00
2013,06,22,13,46,19.20
2013,06,22,13,47,19.40
2013,06,22,13,48,19.40
2013,06,22,13,49,19.50
2013,06,22,13,50,19.60
2013,06,22,13,51,19.60
2013,06,22,13,52,19.40
2013,06,22,13,53,19.20
2013,06,22,13,54,19.10
2013,06,22,13,55,18.90
2013,06,22,13,56,18.90
2013,06,22,13,57,18.90
2013,06,22,13,58,18.80
2013,06,22,13,59,18.80
2013,06,22,14,00,18.70
2013,06,22,14,01,18.70
2013,06,22,14,02,18.70
2013,06,22,14,03,18.60
2013,06,22,14,04,18.70
2013,06,22,14,05,18.60
2013,06,22,14,06,18.40
2013,06,22,14,07,18.30
2013,06,22,14,08,18.30
2013,06,22,14,09,18.30
2013,06,22,14,10,18.50
2013,06,22,14,11,18.50
2013,06,22,14,12,18.60
2013,06,22,14,13,18.60
2013,06,22,14,14,18.60
2013,06,22,14,15,18.60
2013,06,22,14,16,18.60
2013,06,22,14,17,18.70
2013,06,22,14,18,18.70
2013,06,22,14,19,18.70
2013,06,22,14,20,18.80
2013,06,22,14,21,18.90
2013,06,22,14,22,18.90
2013,06,22,14,23,18.90
2013,06,22,14,24,18.80
2013,06,22,14,25,18.80
2013,06,22,14,26,18.80
2013,06,22,14,27,18.90
2013,06,22,14,28,18.90
2013,06,22,14,29,19.10
2013,06,22,14,30,19.20
2013,06,22,14,31,19.20
2013,06,22,14,32,19.10
2013,06,22,14,33,19.10
2013,06,22,14,34,19.10
2013,06,22,14,35,19.10
2013,06,22,14,36,19.10
2013,06,22,14,37,19.10
2013,06,22,14,38,19.30
2013,06,22,14,39,19.40
2013,06,22,14,40,19.40
2013,06,22,14,41,19.30
2013,06,22,14,42,19.30
2013,06,22,14,43,19.30
2013,06,22,14,44,19.40
2013,06,22,14,45,19.60
2013,06,22,14,46,19.60
2013,06,22,14,47,19.70
2013,06,22,14,48,19.70
2013,06,22,14,49,19.60
2013,06,22,14,50,19.40
2013,06,22,14,51,19.30
2013,06,22,14,52,19.30
2013,06,22,14,53,19.20
2013,06,22,14,54,19.20
2013,06,22,14,55,19.10
2013,06,22,14,56,19.10
2013,06,22,14,57,19.10
2013,06,22,14,58,19.10
2013,06,22,14,59,19.30
2013,06,22,15,00,19.30
2013,06,22,15,01,19.40
2013,06,22,15,02,19.50
2013,06,22,15,03,19.50
2013,06,22,15,04,19.60
2013,06,22,15,05,19.60
2013,06,22,15,06,19.70
2013,06,22,15,07,19.70
2013,06,22,15,08,19.70
2013,06,22,15,09,19.80
2013,06,22,15,10,19.90
2013,06,22,15,11,19.90
2013,06,22,15,12,20.00
2013,06,22,15,13,20.10
2013,06,22,15,14,20.20
2013,06,22,15,15,20.20
2013,06,22,15,16,20.20
2013,06,22,15,17,20.40
2013,06,22,15,18,20.60
2013,06,22,15,19,20.60
2013,06,22,15,20,20.70
2013,06,22,15,21,20.60
2013,06,22,15,22,20.60
2013,06,22,15,23,20.70
2013,06,22,15,24,20.60
2013,06,22,15,25,20.60
2013,06,22,15,26,20.60
2013,06,22,15,27,20.60
2013,06,22,15,28,20.70
2013,06,22,15,29,20.80
2013,06,22,15,30,20.80
2013,06,22,15,31,20.90
2013,06,22,15,32,20.80
2013,06,22,15,33,20.80
2013,06,22,15,34,20.70
2013,06,22,15,35,20.60
2013,06,22,15,36,20.50
2013,06,22,15,37,20.50
2013,06,22,15,38,20.50
2013,06,22,15,39,20.70
2013,06,22,15,40,20.80
2013,06,22,15,41,20.90
2013,06,22,15,42,21.00
2013,06,22,15,43,21.10
2013,06,22,15,44,21.30
2013,06,22,15,45,21.40
2013,06,22,15,46,21.60
2013,06,22,15,47,21.70
2013,06,22,15,48,21.70
2013,06,22,15,49,21.60
2013,06,22,15,50,21.60
2013,06,22,15,51,21.60
2013,06,22,15,52,21.60
2013,06,22,15,53,21.40
2013,06,22,15,54,21.10
2013,06,22,15,55,20.90
2013,06,22,15,56,20.50
2013,06,22,15,57,20.20
2013,06,22,15,58,20.00
2013,06,22,15,59,19.90
2013,06,22,16,00,19.90
2013,06,22,16,01,19.90
2013,06,22,16,02,19.90
2013,06,22,16,03,19.90
2013,06,22,16,04,19.90
2013,06,22,16,05,19.90
2013,06,22,16,06,19.90
2013,06,22,16,07,19.90
2013,06,22,16,08,19.90
2013,06,22,16,09,19.90
2013,06,22,16,10,20.00
2013,06,22,16,11,19.90
2013,06,22,16,12,19.90
2013,06,22,16,13,20.10
2013,06,22,16,14,19.90
2013,06,22,16,15,19.90
2013,06,22,16,16,19.90
2013,06,22,16,17,19.80
2013,06,22,16,18,19.90
2013,06,22,16,19,19.90
2013,06,22,16,20,20.00
2013,06,22,16,21,20.10
2013,06,22,16,22,20.20
2013,06,22,16,23,20.20
2013,06,22,16,24,20.20
2013,06,22,16,25,20.20
2013,06,22,16,26,20.20
2013,06,22,16,27,20.10
2013,06,22,16,28,20.10
2013,06,22,16,29,20.10
2013,06,22,16,30,20.10
2013,06,22,16,31,20.20
2013,06,22,16,32,20.20
2013,06,22,16,33,20.30
2013,06,22,16,34,20.40
2013,06,22,16,35,20.50
2013,06,22,16,36,20.50
2013,06,22,16,37,20.60
2013,06,22,16,38,20.50
2013,06,22,16,39,20.50
2013,06,22,16,40,20.30
2013,06,22,16,41,20.20
2013,06,22,16,42,20.20
2013,06,22,16,43,20.30
2013,06,22,16,44,20.40
2013,06,22,16,45,20.40
2013,06,22,16,46,20.50
2013,06,22,16,47,20.60
2013,06,22,16,48,20.60
2013,06,22,16,49,20.50
2013,06,22,16,50,20.40
2013,06,22,16,51,20.40
2013,06,22,16,52,20.40
2013,06,22,16,53,20.30
2013,06,22,16,54,20.20
2013,06,22,16,55,20.20
2013,06,22,16,56,20.20
2013,06,22,16,57,20.20
2013,06,22,16,58,20.30
2013,06,22,16,59,20.40
2013,06,22,17,00,20.50
2013,06,22,17,01,20.40
2013,06,22,17,02,20.40
2013,06,22,17,03,20.50
2013,06,22,17,04,20.60
2013,06,22,17,05,20.60
2013,06,22,17,06,20.60
2013,06,22,17,07,20.50
2013,06,22,17,08,20.40
2013,06,22,17,09,20.30
2013,06,22,17,10,20.30
2013,06,22,17,11,20.30
2013,06,22,17,12,20.30
2013,06,22,17,13,20.30
2013,06,22,17,14,20.30
2013,06,22,17,15,20.20
2013,06,22,17,16,20.30
2013,06,22,17,17,20.30
2013,06,22,17,18,20.30
2013,06,22,17,19,20.40